Rome, GA

4:13 AM EST on November 13, 2019 (GMT -0500)
Russell

Weather History for KRMG - October, 2019

Change the Weather History Date:

Monday, October 21, 2019

  Actual Average Record
Temperature  
Mean Temperature 66 °F 59 °F  
Max Temperature 77 °F 72 °F 84 °F (2003)
Min Temperature 55 °F 47 °F 32 °F (2011)
Degree Days  
Heating Degree Days 0 6  
Month to date heating degree days 37 81  
Since 1 July heating degree days 37 95  
Cooling Degree Days 1 1  
Month to date cooling degree days 129 37  
Year to date cooling degree days 2344 1627  
Growing Degree Days 16 (Base 50)    
Moisture  
Dew Point 59 °F    
Average Humidity 87    
Maximum Humidity 96    
Minimum Humidity 62    
Precipitation  
Precipitation 0.35 in 0.12 in 0.35 in (2002)
Month to date precipitation 1.46 2.68  
Year to date precipitation 44.22 41.51  
Snow  
Snow 0.00 in - - ()
Month to date snowfall 0.0  
Since 1 July snowfall 0.0  
Since 1 September snowfall 0.0  
Snow Depth 0.00 in    
Sea Level Pressure  
Sea Level Pressure 29.94 in    
Wind  
Wind Speed 2 mph ()    
Max Wind Speed 15 mph    
Max Gust Speed 20 mph    
Visibility 4.7 miles    
Events Fog , Rain    
T = Trace of Precipitation, MM = Missing Value Source: Averaged Metar Reports

Daily Weather History Graph

Daily Weather History Graph

Search for Another Location

Airport or City:

Astronomy

Oct. 21, 2019 Rise Set
Actual Time 7:50 AM EDT 6:59 PM EDT
Civil Twilight 7:25 AM EDT 7:24 PM EDT
Nautical Twilight 6:55 AM EDT 7:53 PM EDT
Astronomical Twilight 6:26 AM EDT 8:23 PM EDT
Moon 12:18 AM EDT (10/21) 2:59 PM EDT (10/21)
Length of Visible Light 11h 59m
Length of Day
11h 08m
Waning Gibbous, 48% of the Moon is Illuminated
Oct 21
Waning Gibbous
Oct 27
New
Nov 4
First Quarter
Nov 12
Full
Nov 19
Last Quarter

Hourly Weather History & Observations

Time (EDT) Temp. Dew Point Humidity Pressure Visibility Wind Dir Wind Speed Gust Speed Precip Events Conditions
12:14 AM 57.0 °F 54.0 °F 89% 29.97 in 0.5 mi Calm Calm - N/A Fog Fog
12:24 AM 55.9 °F 54.0 °F 93% 29.97 in 0.2 mi Calm Calm - N/A Fog Fog
12:53 AM 57.0 °F 55.0 °F 93% 29.96 in 0.2 mi Calm Calm - N/A Fog Fog
1:53 AM 57.0 °F 55.0 °F 93% 29.95 in 0.5 mi Calm Calm - N/A Fog Fog
2:53 AM 57.0 °F 55.0 °F 93% 29.95 in 0.2 mi Calm Calm - N/A Fog Fog
3:39 AM 57.0 °F 55.0 °F 93% 29.95 in 0.2 mi Calm Calm - N/A Fog Fog
3:53 AM 57.0 °F 55.9 °F 96% 29.93 in 0.2 mi Calm Calm - N/A Fog Fog
4:00 AM 57.0 °F 55.9 °F 96% 29.94 in 0.2 mi Calm Calm - N/A Fog Fog
4:53 AM 57.9 °F 55.9 °F 93% 29.92 in 0.2 mi Calm Calm - N/A Fog Fog
5:17 AM 57.9 °F 55.9 °F 93% 29.93 in 0.2 mi Calm Calm - N/A Fog Fog
6:16 AM 57.9 °F 55.9 °F 93% 29.95 in 0.5 mi Calm Calm - N/A Fog Fog
6:24 AM 57.9 °F 55.9 °F 93% 29.95 in 0.2 mi Calm Calm - N/A Fog Fog
6:53 AM 57.0 °F 55.9 °F 96% 29.94 in 0.2 mi Calm Calm - N/A Fog Fog
7:15 AM 57.0 °F 55.9 °F 96% 29.96 in 0.5 mi Calm Calm - N/A Fog Fog
7:34 AM 57.0 °F 55.9 °F 96% 29.96 in 0.2 mi Calm Calm - N/A Fog Fog
7:53 AM 57.9 °F 55.9 °F 93% 29.96 in 0.2 mi North 3.5 mph - N/A Fog Fog
8:08 AM 57.0 °F 55.9 °F 96% 29.97 in 0.5 mi Calm Calm - N/A Fog Fog
8:24 AM 57.0 °F 55.0 °F 93% 29.97 in 1.8 mi Calm Calm - N/A   Mostly Cloudy
8:39 AM 57.9 °F 55.9 °F 93% 29.97 in 0.5 mi Calm Calm - N/A Fog Fog
8:42 AM 57.9 °F 55.9 °F 93% 29.97 in 0.2 mi Calm Calm - N/A Fog Fog
8:49 AM 57.2 °F 55.4 °F 94% 29.97 in 0.5 mi Calm Calm - N/A Fog Fog
8:53 AM 57.9 °F 55.9 °F 93% 29.96 in 0.5 mi Calm Calm - N/A Fog Fog
9:04 AM 59.0 °F 57.0 °F 93% 29.97 in 0.5 mi Calm Calm - N/A Fog Fog
9:18 AM 59.0 °F 57.0 °F 93% 29.98 in 1.0 mi Calm Calm - N/A   Mist
9:27 AM 60.1 °F 57.0 °F 90% 29.97 in 2.0 mi ESE 3.5 mph - N/A   Clear
9:35 AM 60.1 °F 57.9 °F 93% 29.97 in 8.0 mi SSE 4.6 mph - N/A   Clear
9:53 AM 62.1 °F 59.0 °F 90% 29.95 in 10.0 mi SE 6.9 mph - N/A   Clear
10:15 AM 63.0 °F 60.1 °F 90% 29.97 in 10.0 mi SSE 5.8 mph - N/A   Partly Cloudy
10:40 AM 64.0 °F 60.1 °F 87% 29.97 in 10.0 mi South 5.8 mph - N/A   Mostly Cloudy
10:53 AM 64.0 °F 60.1 °F 87% 29.96 in 10.0 mi South 3.5 mph - N/A   Overcast
11:53 AM 68.0 °F 62.1 °F 81% 29.95 in 10.0 mi SSE 6.9 mph - N/A   Overcast
12:53 PM 73.0 °F 62.1 °F 68% 29.95 in 10.0 mi South 11.5 mph - N/A   Mostly Cloudy
1:26 PM 73.9 °F 62.1 °F 66% 29.96 in 10.0 mi South 12.7 mph - N/A   Scattered Clouds
1:53 PM 75.0 °F 62.1 °F 64% 29.94 in 10.0 mi SSE 12.7 mph 18.4 mph N/A   Scattered Clouds
2:12 PM 75.0 °F 62.1 °F 64% 29.95 in 10.0 mi South 10.4 mph - N/A   Mostly Cloudy
2:53 PM 75.9 °F 63.0 °F 64% 29.92 in 10.0 mi South 9.2 mph - N/A   Scattered Clouds
3:53 PM 75.9 °F 62.1 °F 62% 29.90 in 10.0 mi South 10.4 mph - N/A   Overcast
4:53 PM 75.0 °F 62.1 °F 64% 29.90 in 10.0 mi SSE 6.9 mph - N/A   Mostly Cloudy
5:53 PM 73.9 °F 64.0 °F 71% 29.88 in 10.0 mi SSE 5.8 mph - N/A   Overcast
6:53 PM 73.0 °F 64.0 °F 73% 29.88 in 10.0 mi SSE 5.8 mph - N/A   Overcast
7:53 PM 69.1 °F 66.0 °F 90% 29.90 in 6.0 mi SSW 3.5 mph - 0.04 in Rain Light Rain
8:22 PM 68.0 °F 64.0 °F 87% 29.93 in 4.0 mi West 6.9 mph - 0.04 in Rain Rain
8:33 PM 66.9 °F 64.0 °F 90% 29.94 in 1.8 mi South 9.2 mph - 0.12 in Rain Heavy Rain
8:46 PM 66.9 °F 64.0 °F 90% 29.93 in 2.0 mi Calm Calm - 0.30 in Rain Rain
8:53 PM 66.9 °F 64.0 °F 90% 29.91 in 7.0 mi Calm Calm - 0.30 in Rain Light Rain
9:07 PM 66.9 °F 64.9 °F 93% 29.91 in 10.0 mi Calm Calm - 0.00 in Rain Light Rain
9:40 PM 66.2 °F 64.4 °F 94% 29.89 in 10.0 mi ESE 8.1 mph - N/A   Mostly Cloudy
9:48 PM 66.2 °F 64.4 °F 94% 29.90 in 10.0 mi South 5.8 mph - 0.01 in   Mostly Cloudy
9:53 PM 66.9 °F 64.9 °F 93% 29.88 in 10.0 mi South 4.6 mph - 0.01 in   Scattered Clouds
10:53 PM 68.0 °F 64.9 °F 90% 29.89 in 10.0 mi Calm Calm - N/A   Overcast
11:53 PM 68.0 °F 64.9 °F 90% 29.87 in 10.0 mi ESE 3.5 mph - N/A   Overcast